• In United Kingdom
  • List of Countries
  • For 7 days
  • Water Temperature
  • Satellite Maps
  • Weather Map
  • Weather Widgets
  • user-avatar
    Login

    Hourly Weather Chester

    Today, 20 January, Saturday

    Time Temperature Precipitation Wind Pressure Humidity
    00:00 0°C° 0.1 mm 4 mps 753 mmHg 82%
    01:00 0°C° 0 mm 4 mps 752 mmHg 83%
    02:00 0°C° 0 mm 4 mps 752 mmHg 84%
    03:00 +1°C° 0 mm 3 mps 752 mmHg 84%
    04:00 +1°C° 0 mm 3 mps 751 mmHg 85%
    05:00 +2°C° 0 mm 2 mps 751 mmHg 86%
    06:00 +2°C° 0 mm 2 mps 750 mmHg 87%
    07:00 +3°C° 0.2 mm 2 mps 750 mmHg 88%
    08:00 +4°C° 0.2 mm 1 mps 750 mmHg 88%
    09:00 +4°C° 0.2 mm 1 mps 750 mmHg 89%
    10:00 +4°C° 0.3 mm 1 mps 750 mmHg 89%
    11:00 +5°C° 0.3 mm 1 mps 750 mmHg 89%
    12:00 +5°C° 0.3 mm 1 mps 750 mmHg 89%
    13:00 +4°C° 0.2 mm 2 mps 750 mmHg 90%
    14:00 +4°C° 0.2 mm 2 mps 750 mmHg 90%
    15:00 +4°C° 0.2 mm 2 mps 750 mmHg 91%
    16:00 +4°C° 0.1 mm 2 mps 751 mmHg 91%
    17:00 +4°C° 0.1 mm 1 mps 752 mmHg 91%
    18:00 +4°C° 0.1 mm 1 mps 753 mmHg 91%
    19:00 +3°C° 0 mm 1 mps 754 mmHg 91%
    20:00 +3°C° 0 mm 1 mps 755 mmHg 90%
    21:00 +2°C° 0 mm 1 mps 756 mmHg 90%
    22:00 +3°C° 0 mm 1 mps 756 mmHg 89%
    23:00 +3°C° 0 mm 1 mps 756 mmHg 88%

    Tomorrow, 21 January, Sunday

    Time Temperature Precipitation Wind Pressure Humidity
    00:00 +3°C° 0 mm 1 mps 757 mmHg 87%
    01:00 +2°C° 0.3 mm 2 mps 756 mmHg 88%
    02:00 +1°C° 0.3 mm 3 mps 756 mmHg 89%
    03:00 +2°C° 0.3 mm 3 mps 756 mmHg 89%
    04:00 +1°C° 1.7 mm 4 mps 755 mmHg 91%
    05:00 +1°C° 1.7 mm 4 mps 755 mmHg 93%
    06:00 +1°C° 1.7 mm 5 mps 754 mmHg 95%
    07:00 +1°C° 1.2 mm 5 mps 754 mmHg 96%
    08:00 +1°C° 1.2 mm 6 mps 754 mmHg 96%
    09:00 +1°C° 1.2 mm 6 mps 754 mmHg 96%
    10:00 +2°C° 1.1 mm 6 mps 753 mmHg 96%
    11:00 +2°C° 1.1 mm 5 mps 753 mmHg 96%
    12:00 +3°C° 1.1 mm 5 mps 753 mmHg 97%
    13:00 +5°C° 1.9 mm 5 mps 752 mmHg 97%
    14:00 +6°C° 1.9 mm 5 mps 752 mmHg 97%
    15:00 +7°C° 1.9 mm 5 mps 752 mmHg 97%
    16:00 +8°C° 0.4 mm 5 mps 752 mmHg 96%
    17:00 +9°C° 0.4 mm 5 mps 752 mmHg 96%
    18:00 +9°C° 0.4 mm 5 mps 752 mmHg 96%
    19:00 +9°C° 0.4 mm 5 mps 752 mmHg 95%
    20:00 +9°C° 0.4 mm 5 mps 752 mmHg 95%
    21:00 +9°C° 0.4 mm 5 mps 752 mmHg 95%
    22:00 +9°C° 0.4 mm 5 mps 752 mmHg 96%
    23:00 +9°C° 0.4 mm 5 mps 752 mmHg 96%

    Day after tomorrow, 22 January, Monday

    Time Temperature Precipitation Wind Pressure Humidity
    00:00 +9°C° 0.4 mm 5 mps 752 mmHg 96%
    01:00 +10°C° 0.2 mm 4 mps 751 mmHg 96%
    02:00 +10°C° 0.2 mm 4 mps 751 mmHg 96%
    03:00 +10°C° 0.2 mm 3 mps 751 mmHg 97%
    04:00 +10°C° 1.8 mm 3 mps 750 mmHg 97%
    05:00 +9°C° 1.8 mm 3 mps 750 mmHg 97%
    06:00 +9°C° 1.8 mm 2 mps 750 mmHg 98%
    07:00 +9°C° 0.6 mm 3 mps 751 mmHg 97%
    08:00 +8°C° 0.6 mm 4 mps 751 mmHg 96%
    09:00 +8°C° 0.6 mm 4 mps 752 mmHg 95%
    10:00 +8°C° 0 mm 5 mps 753 mmHg 90%
    11:00 +8°C° 0 mm 5 mps 755 mmHg 86%
    12:00 +8°C° 0 mm 6 mps 756 mmHg 82%
    13:00 +8°C° 0 mm 5 mps 756 mmHg 82%
    14:00 +7°C° 0 mm 5 mps 757 mmHg 82%
    15:00 +7°C° 0 mm 4 mps 758 mmHg 81%
    16:00 +6°C° 0 mm 4 mps 758 mmHg 84%
    17:00 +5°C° 0 mm 4 mps 759 mmHg 86%
    18:00 +5°C° 0 mm 3 mps 759 mmHg 89%
    19:00 +5°C° 0 mm 4 mps 759 mmHg 89%
    20:00 +5°C° 0 mm 4 mps 760 mmHg 90%
    21:00 +5°C° 0 mm 4 mps 760 mmHg 90%
    22:00 +5°C° 0 mm 4 mps 759 mmHg 90%
    23:00 +5°C° 0 mm 5 mps 759 mmHg 90%

    23 January, Tuesday

    Time Temperature Precipitation Wind Pressure Humidity
    00:00 +5°C° 0 mm 5 mps 759 mmHg 90%
    01:00 +6°C° 0 mm 5 mps 758 mmHg 90%
    02:00 +5°C° 0 mm 6 mps 758 mmHg 90%
    03:00 +7°C° 0 mm 6 mps 757 mmHg 89%
    04:00 +7°C° 0 mm 6 mps 757 mmHg 90%
    05:00 +8°C° 0 mm 6 mps 756 mmHg 91%
    06:00 +9°C° 0 mm 6 mps 756 mmHg 92%
    07:00 +9°C° 0.1 mm 6 mps 756 mmHg 92%
    08:00 +9°C° 0.1 mm 6 mps 756 mmHg 92%
    09:00 +9°C° 0.1 mm 6 mps 756 mmHg 92%
    10:00 +10°C° 0.4 mm 6 mps 757 mmHg 91%
    11:00 +10°C° 0.4 mm 7 mps 757 mmHg 91%
    12:00 +10°C° 0.4 mm 7 mps 757 mmHg 90%
    13:00 +10°C° 0.1 mm 7 mps 757 mmHg 88%
    14:00 +10°C° 0.1 mm 6 mps 757 mmHg 86%
    15:00 +10°C° 0.1 mm 6 mps 757 mmHg 85%
    16:00 +10°C° 0 mm 6 mps 757 mmHg 87%
    17:00 +10°C° 0 mm 6 mps 756 mmHg 88%
    18:00 +10°C° 0 mm 6 mps 756 mmHg 90%
    19:00 +10°C° 0.1 mm 7 mps 756 mmHg 89%
    20:00 +10°C° 0.1 mm 7 mps 756 mmHg 89%
    21:00 +11°C° 0.1 mm 8 mps 755 mmHg 88%
    22:00 +11°C° 0.1 mm 8 mps 755 mmHg 86%
    23:00 +11°C° 0.1 mm 9 mps 754 mmHg 85%

    24 January, Wednesday

    Time Temperature Precipitation Wind Pressure Humidity
    00:00 +12°C° 0.1 mm 10 mps 754 mmHg 84%
    01:00 +11°C° 0.5 mm 10 mps 753 mmHg 83%
    02:00 +11°C° 0.5 mm 11 mps 753 mmHg 83%
    03:00 +11°C° 0.5 mm 11 mps 752 mmHg 82%
    04:00 +11°C° 0.7 mm 10 mps 752 mmHg 83%
    05:00 +11°C° 0.7 mm 10 mps 752 mmHg 83%
    06:00 +11°C° 0.7 mm 9 mps 752 mmHg 84%
    07:00 +11°C° 0.7 mm 8 mps 752 mmHg 86%
    08:00 +11°C° 0.7 mm 7 mps 752 mmHg 88%
    09:00 +10°C° 0.7 mm 6 mps 752 mmHg 89%
    10:00 +9°C° 2.3 mm 6 mps 752 mmHg 88%
    11:00 +8°C° 2.3 mm 5 mps 752 mmHg 86%
    12:00 +7°C° 2.3 mm 5 mps 752 mmHg 85%
    13:00 +7°C° 0.9 mm 4 mps 751 mmHg 86%
    14:00 +6°C° 0.9 mm 4 mps 751 mmHg 86%
    15:00 +7°C° 0.9 mm 3 mps 751 mmHg 86%
    16:00 +7°C° 1.4 mm 3 mps 750 mmHg 87%
    17:00 +5°C° 1.4 mm 4 mps 750 mmHg 88%
    18:00 +5°C° 1.4 mm 4 mps 750 mmHg 90%
    19:00 +5°C° 0.6 mm 4 mps 750 mmHg 87%
    20:00 +5°C° 0.6 mm 4 mps 751 mmHg 85%
    21:00 +5°C° 0.6 mm 5 mps 751 mmHg 83%
    22:00 +5°C° 0 mm 5 mps 752 mmHg 81%
    23:00 +3°C° 0 mm 6 mps 752 mmHg 80%

    25 January, Thursday

    Time Temperature Precipitation Wind Pressure Humidity
    00:00 +3°C° 0 mm 6 mps 753 mmHg 79%
    01:00 +3°C° 0 mm 6 mps 753 mmHg 79%
    02:00 +3°C° 0 mm 6 mps 753 mmHg 79%
    03:00 +2°C° 0 mm 7 mps 753 mmHg 78%
    04:00 +2°C° 0 mm 7 mps 753 mmHg 78%
    05:00 +2°C° 0 mm 7 mps 753 mmHg 78%
    06:00 +2°C° 0 mm 7 mps 753 mmHg 78%
    07:00 +3°C° 0.1 mm 7 mps 754 mmHg 78%
    08:00 +2°C° 0.1 mm 8 mps 754 mmHg 78%
    09:00 +2°C° 0.1 mm 8 mps 754 mmHg 78%
    10:00 +4°C° 0 mm 8 mps 755 mmHg 75%
    11:00 +5°C° 0 mm 9 mps 755 mmHg 72%
    12:00 +6°C° 0 mm 9 mps 756 mmHg 68%
    13:00 +5°C° 0.1 mm 9 mps 757 mmHg 68%
    14:00 +5°C° 0.1 mm 9 mps 757 mmHg 68%
    15:00 +5°C° 0.1 mm 8 mps 758 mmHg 68%
    16:00 +4°C° 0 mm 8 mps 759 mmHg 70%
    17:00 +4°C° 0 mm 7 mps 760 mmHg 72%
    18:00 +3°C° 0 mm 7 mps 761 mmHg 74%
    19:00 +3°C° 0 mm 7 mps 762 mmHg 75%
    20:00 +3°C° 0 mm 7 mps 762 mmHg 75%
    21:00 +2°C° 0 mm 7 mps 763 mmHg 76%
    22:00 +2°C° 0.1 mm 7 mps 764 mmHg 76%
    23:00 +2°C° 0.1 mm 7 mps 765 mmHg 76%
    Show more